Flag for Russia Weather past 2 weeks in Samara, Russia

Now
43 °F

Quite cool.


Feels Like: 39 °F
Forecast: 52 / 74 °F
Wind: 6 mph from East

Location: Samara

Current Time: Apr 28, 2015 at 6:28:53 AM

Latest Report: Apr 28, 2015 at 6:00 AM


Visibility: 0 mi

Pressure: 30.07 "Hg

Humidity: 93%

Dew point: 41 °F

Location of SamaraLocation

Historic Weather in Samara — Graph

°F

Samara temperature yesterday

Maximum temperature yesterday: 46 °F (at 11:30 AM)
Minimum temperature yesterday: 37 °F (at 4:30 AM)
Average temperature yesterday: 43 °F

Past Weeks' High & Low Weather Summary

 TemperatureHumidityPressure
High63 °F (Apr 15, 2:00 PM)100% (Apr 16, 12:30 AM)30.24 "Hg (Apr 16, 12:30 AM)
Low30 °F (Apr 20, 11:30 PM)22% (Apr 15, 3:30 PM)28.97 "Hg (Apr 20, 12:30 PM)
Average44 °F65%29.68 "Hg
* Reported Apr 13 5:00 AM — Apr 28 5:30 AM, Samara, Weather by CustomWeather, © 2015

Note: Actual official high and low records may vary slightly from our data, if they occured in-between our weather recording intervals... More about our weather records

Advertising

Samara weather history for previous 24 hours

 ConditionsComfort  
Time TempWeatherWind HumidityBarometerVisibility
5:30 AM
Tue, Apr 28
43 °FFog.3 mph93%30.07 "Hg0 mi
5:00 AM43 °FFog.3 mph93%30.07 "Hg0 mi
4:30 AM43 °FQuite cool.3 mph93%30.07 "Hg1 mi
4:00 AM43 °FFog.3 mph93%30.04 "Hg1 mi
3:30 AM43 °FFog.3 mph93%30.04 "Hg1 mi
3:00 AM43 °FQuite cool.1 mph93%30.07 "Hg1 mi
2:30 AM43 °FQuite cool.1 mph93%30.04 "Hg0 mi
2:00 AM43 °FQuite cool.1 mph93%30.04 "Hg0 mi
1:30 AM43 °FQuite cool.3 mph93%30.01 "Hg0 mi
1:00 AM43 °FQuite cool.3 mph93%30.01 "Hg1 mi
12:30 AM43 °FQuite cool.3 mph93%30.01 "Hg1 mi
12:00 AM43 °FQuite cool.3 mph93%30.01 "Hg0 mi
11:30 PM
Mon, Apr 27
43 °FFog.6 mph93%30.01 "Hg0 mi
11:00 PM43 °FQuite cool.6 mph93%29.98 "Hg0 mi
10:30 PM45 °FFog.6 mph87%29.98 "Hg1 mi
10:00 PM45 °FQuite cool.6 mph87%29.98 "Hg1 mi
9:30 PM45 °FFog.3 mph87%29.98 "Hg0 mi
9:00 PM45 °FFog.3 mph87%29.98 "Hg0 mi
8:30 PM45 °FQuite cool.1 mph87%29.98 "Hg0 mi
8:00 PM45 °FQuite cool.1 mph87%29.95 "Hg1 mi
7:30 PM45 °FFog.No wind93%29.95 "Hg1 mi
7:00 PM45 °FLight rain. Mostly cloudy.1 mph93%29.92 "Hg2 mi
6:30 PM45 °FLight rain. Mostly cloudy.3 mph93%29.92 "Hg2 mi
6:00 PM45 °FLight rain. Mostly cloudy.1 mph93%29.92 "Hg2 mi
5:30 PM45 °FLight rain. Low clouds.3 mph87%29.92 "Hg2 mi
5:00 PM45 °FLight rain. Low clouds.3 mph87%29.92 "Hg2 mi
4:30 PM45 °FSprinkles. Mostly cloudy.6 mph87%29.92 "Hg2 mi
4:00 PM45 °FSprinkles. Mostly cloudy.6 mph87%29.92 "Hg2 mi
3:30 PM45 °FSprinkles. Mostly cloudy.6 mph87%29.92 "Hg2 mi
3:00 PM45 °FSprinkles. More clouds than sun.6 mph87%29.89 "Hg2 mi
2:30 PM45 °FSprinkles. More clouds than sun.6 mph87%29.89 "Hg2 mi
2:00 PM46 °FSprinkles. More clouds than sun.6 mph82%29.86 "Hg2 mi
1:30 PM45 °FSprinkles. More clouds than sun.3 mph81%29.89 "Hg2 mi
1:00 PM45 °FSprinkles. More clouds than sun.6 mph81%29.89 "Hg2 mi
12:30 PM46 °FLight rain. More clouds than sun.6 mph76%29.89 "Hg3 mi
12:00 PM46 °FLight rain. More clouds than sun.6 mph71%29.89 "HgN/A
11:30 AM46 °FLight rain. More clouds than sun.8 mph66%29.89 "HgN/A
11:00 AM45 °FMore clouds than sun.8 mph71%29.89 "HgN/A
10:30 AM45 °FMore clouds than sun.8 mph71%29.89 "HgN/A
10:00 AM45 °FMore clouds than sun.8 mph71%29.89 "HgN/A
9:30 AM43 °FMore clouds than sun.8 mph76%29.92 "HgN/A
9:00 AM43 °FMostly cloudy.10 mph76%29.92 "HgN/A
8:30 AM41 °FMostly cloudy.8 mph81%29.92 "HgN/A
8:00 AM39 °FMostly cloudy.10 mph87%29.92 "HgN/A
7:30 AM39 °FMostly cloudy.8 mph87%29.92 "HgN/A
7:00 AM37 °FOvercast.8 mph87%29.92 "HgN/A
6:30 AM37 °FFog.8 mph87%29.92 "Hg3 mi
6:00 AM37 °FFog.8 mph87%29.92 "Hg2 mi
Weather by CustomWeather, © 2015

See weather overviewHow to use our weather pages